Paris, IL

10:05 AM CST on November 21, 2017 (GMT -0600)
Edgar County

Weather History for KPRG - October, 2012

Change the Weather History Date:

Sunday, October 14, 2012

  Actual Average (KHUF) Record (KHUF)
Temperature  
Mean Temperature 62 °F -  
Max Temperature 74 °F 69 °F 87 °F (1975)
Min Temperature 50 °F 43 °F 23 °F (1988)
Degree Days  
Heating Degree Days 2    
Growing Degree Days 12 (Base 50)    
Moisture  
Dew Point 58 °F    
Average Humidity 78    
Maximum Humidity 93    
Minimum Humidity 53    
Precipitation  
Precipitation 0.20 in - - ()
Sea Level Pressure  
Sea Level Pressure 29.76 in    
Wind  
Wind Speed 19 mph (SW)    
Max Wind Speed 34 mph    
Max Gust Speed 46 mph    
Visibility 10 miles    
Events Rain , Thunderstorm    
Averages and records for this station are not official NWS values.
T = Trace of Precipitation, MM = Missing Value Source: NWS Daily Summary

Daily Weather History Graph

Daily Weather History Graph

Search for Another Location

Airport or City:

Trip Planner

Search our weather history database for the weather conditions in past years. The results will help you decide how hot, cold, wet, or windy it might be!

Date:

Astronomy

Oct. 14, 2012 Rise Set
Actual Time 7:00 AM CDT 6:12 PM CDT
Civil Twilight 6:33 AM CDT 6:39 PM CDT
Nautical Twilight 6:01 AM CDT 7:10 PM CDT
Astronomical Twilight 5:30 AM CDT 7:41 PM CDT
Moon 5:59 AM CDT (10/14) 5:31 PM CDT (10/14)
Length of Visible Light 12h 06m
Length of Day
11h 11m
Waning Crescent, 1% of the Moon is Illuminated
Oct 14
Waning Crescent
Oct 15
New
Oct 21
First Quarter
Oct 29
Full
Nov 6
Last Quarter

Hourly Weather History & Observations

Time (CDT) Temp. Dew Point Humidity Pressure Visibility Wind Dir Wind Speed Gust Speed Precip Events Conditions
12:15 AM 68.0 °F 61.0 °F 78% 29.88 in 10.0 mi SSE 10.4 mph - N/A   Overcast
12:35 AM 68.0 °F 61.2 °F 79% 29.87 in 10.0 mi SSE 12.7 mph - N/A   Overcast
12:55 AM 68.4 °F 61.3 °F 78% 29.87 in 10.0 mi SSE 13.8 mph - N/A   Overcast
1:15 AM 68.4 °F 61.3 °F 78% 29.87 in 10.0 mi SSE 13.8 mph - N/A   Overcast
1:35 AM 68.2 °F 61.3 °F 79% 29.87 in 10.0 mi South 18.4 mph - N/A   Overcast
1:55 AM 68.0 °F 61.2 °F 79% 29.86 in 10.0 mi South 17.3 mph - N/A   Overcast
2:15 AM 68.0 °F 60.8 °F 78% 29.85 in 10.0 mi South 17.3 mph 23.0 mph N/A   Mostly Cloudy
2:35 AM 67.6 °F 61.7 °F 81% 29.84 in 10.0 mi South 18.4 mph 24.2 mph N/A   Mostly Cloudy
2:55 AM 67.5 °F 61.7 °F 82% 29.83 in 10.0 mi South 17.3 mph 25.3 mph N/A   Mostly Cloudy
3:15 AM 67.1 °F 61.7 °F 83% 29.82 in 10.0 mi South 19.6 mph 24.2 mph N/A   Scattered Clouds
3:35 AM 67.3 °F 61.9 °F 83% 29.82 in 10.0 mi South 18.4 mph 25.3 mph N/A   Clear
3:55 AM 67.8 °F 62.1 °F 82% 29.82 in 10.0 mi South 19.6 mph 25.3 mph N/A   Mostly Cloudy
4:15 AM 67.6 °F 61.9 °F 82% 29.81 in 10.0 mi South 19.6 mph 26.5 mph N/A   Scattered Clouds
4:35 AM 68.2 °F 62.2 °F 81% 29.80 in 10.0 mi South 19.6 mph 25.3 mph N/A   Mostly Cloudy
4:55 AM 66.9 °F 63.0 °F 87% 29.81 in 10.0 mi SSW 23.0 mph 27.6 mph N/A Rain Light Rain
5:15 AM 66.2 °F 63.1 °F 90% 29.80 in 10.0 mi SSW 17.3 mph 21.9 mph N/A   Drizzle
5:35 AM 65.8 °F 63.1 °F 91% 29.79 in 10.0 mi SSW 16.1 mph - N/A Rain Light Rain
5:55 AM 65.7 °F 63.1 °F 92% 29.79 in 10.0 mi South 13.8 mph - N/A   Drizzle
6:15 AM 65.8 °F 63.5 °F 92% 29.77 in 10.0 mi South 12.7 mph - N/A   Mostly Cloudy
6:35 AM 66.0 °F 63.5 °F 92% 29.76 in 10.0 mi South 19.6 mph 24.2 mph N/A Rain Rain
6:55 AM 66.6 °F 63.0 °F 88% 29.74 in 10.0 mi South 19.6 mph 28.8 mph N/A   Overcast
7:15 AM 66.7 °F 61.9 °F 84% 29.74 in 10.0 mi South 21.9 mph 31.1 mph N/A   Overcast
7:35 AM 66.6 °F 61.3 °F 83% 29.72 in 10.0 mi South 25.3 mph 35.7 mph N/A   Overcast
7:55 AM 66.6 °F 61.7 °F 84% 29.71 in 10.0 mi South 25.3 mph 35.7 mph N/A   Mostly Cloudy
8:15 AM 66.6 °F 61.7 °F 84% 29.65 in 10.0 mi SSE 25.3 mph 38.0 mph N/A   Scattered Clouds
8:35 AM 67.3 °F 62.4 °F 84% 29.68 in 10.0 mi South 26.5 mph 34.5 mph N/A   Clear
8:55 AM 67.6 °F 62.2 °F 83% 29.70 in 10.0 mi South 27.6 mph 34.5 mph N/A   Scattered Clouds
9:15 AM 68.4 °F 61.0 °F 77% 29.71 in 10.0 mi South 21.9 mph 32.2 mph N/A   Clear
9:35 AM 69.6 °F 60.8 °F 73% 29.71 in 10.0 mi South 23.0 mph 31.1 mph N/A   Clear
9:55 AM 70.3 °F 61.0 °F 72% 29.71 in 10.0 mi SSW 25.3 mph 34.5 mph N/A   Mostly Cloudy
10:15 AM 69.8 °F 60.8 °F 73% 29.72 in 10.0 mi South 25.3 mph 34.5 mph N/A   Overcast
10:35 AM 70.2 °F 61.5 °F 74% 29.71 in 10.0 mi SSW 24.2 mph 32.2 mph N/A   Overcast
10:55 AM 70.7 °F 61.3 °F 72% 29.71 in 10.0 mi SSW 25.3 mph 34.5 mph N/A   Overcast
11:15 AM 70.9 °F 61.0 °F 71% 29.71 in 10.0 mi SSW 26.5 mph 35.7 mph N/A   Mostly Cloudy
11:35 AM 71.2 °F 60.8 °F 69% 29.70 in 10.0 mi SSW 29.9 mph 35.7 mph N/A   Scattered Clouds
11:55 AM 73.2 °F 58.6 °F 60% 29.70 in 10.0 mi SSW 31.1 mph 44.9 mph N/A   Scattered Clouds
12:15 PM 72.1 °F 59.0 °F 63% 29.68 in 10.0 mi SSW 34.5 mph 41.4 mph N/A   Scattered Clouds
12:35 PM 73.2 °F 57.7 °F 58% 29.69 in 10.0 mi SSW 27.6 mph 40.3 mph N/A   Scattered Clouds
12:55 PM 72.5 °F 57.2 °F 59% 29.69 in 10.0 mi SSW 25.3 mph 39.1 mph N/A   Overcast
1:15 PM 71.8 °F 57.4 °F 60% 29.68 in 10.0 mi SSW 25.3 mph 35.7 mph N/A   Overcast
1:35 PM 71.6 °F 57.2 °F 60% 29.67 in 10.0 mi SSW 25.3 mph 35.7 mph N/A   Overcast
1:55 PM 71.8 °F 57.2 °F 60% 29.65 in 10.0 mi SSW 27.6 mph 33.4 mph N/A   Mostly Cloudy
2:15 PM 72.3 °F 57.4 °F 59% 29.65 in 10.0 mi SSW 26.5 mph 38.0 mph N/A   Overcast
2:35 PM 72.5 °F 57.4 °F 59% 29.64 in 10.0 mi SSW 24.2 mph 36.8 mph N/A   Overcast
2:55 PM 75.2 °F 57.2 °F 53% 29.64 in 10.0 mi SW 27.6 mph 34.5 mph N/A   Mostly Cloudy
3:15 PM 72.1 °F 56.3 °F 57% 29.63 in 10.0 mi SSW 29.9 mph 42.6 mph N/A   Mostly Cloudy
3:35 PM 73.6 °F 55.9 °F 54% 29.63 in 10.0 mi SW 29.9 mph 43.7 mph N/A   Scattered Clouds
3:55 PM 73.4 °F 55.8 °F 54% 29.63 in 10.0 mi SSW 28.8 mph 39.1 mph N/A   Mostly Cloudy
4:15 PM 72.0 °F 55.8 °F 57% 29.63 in 10.0 mi SSW 29.9 mph 39.1 mph N/A   Mostly Cloudy
4:35 PM 70.9 °F 56.3 °F 60% 29.63 in 10.0 mi SSW 29.9 mph 40.3 mph N/A   Overcast
4:55 PM 66.2 °F 59.4 °F 79% 29.67 in 4.0 mi West 25.3 mph 46.0 mph 0.02 in Rain , Thunderstorm Heavy Thunderstorms and Rain
5:15 PM 61.7 °F 59.7 °F 93% 29.67 in 10.0 mi West 27.6 mph 33.4 mph 0.09 in Rain Light Rain
5:35 PM 61.9 °F 59.4 °F 91% 29.70 in 10.0 mi West 23.0 mph 32.2 mph 0.16 in   Overcast
5:55 PM 62.1 °F 59.0 °F 90% 29.71 in 10.0 mi West 19.6 mph 29.9 mph 0.18 in   Overcast
6:15 PM 61.0 °F 57.7 °F 89% 29.72 in 10.0 mi West 19.6 mph 23.0 mph N/A   Mostly Cloudy
6:35 PM 60.8 °F 57.9 °F 90% 29.74 in 10.0 mi West 17.3 mph 21.9 mph N/A   Mostly Cloudy
6:55 PM 60.3 °F 55.9 °F 86% 29.75 in 10.0 mi West 23.0 mph 32.2 mph N/A   Mostly Cloudy
7:15 PM 59.4 °F 55.4 °F 87% 29.77 in 10.0 mi WNW 18.4 mph 29.9 mph N/A   Mostly Cloudy
7:35 PM 56.7 °F 52.2 °F 85% 29.79 in 10.0 mi WNW 21.9 mph 35.7 mph N/A   Overcast
7:55 PM 56.3 °F 52.3 °F 87% 29.80 in 10.0 mi West 20.7 mph 26.5 mph N/A   Overcast
8:15 PM 55.0 °F 51.3 °F 87% 29.82 in 10.0 mi WNW 26.5 mph 31.1 mph N/A   Overcast
8:35 PM 54.5 °F 50.7 °F 87% 29.83 in 10.0 mi West 24.2 mph 31.1 mph N/A   Overcast
8:55 PM 54.5 °F 50.9 °F 88% 29.84 in 10.0 mi West 18.4 mph 26.5 mph N/A   Overcast
9:15 PM 54.3 °F 50.4 °F 86% 29.85 in 10.0 mi West 17.3 mph 23.0 mph N/A   Overcast
9:35 PM 53.8 °F 50.4 °F 88% 29.86 in 10.0 mi West 20.7 mph 24.2 mph N/A   Overcast
9:55 PM 53.6 °F 49.6 °F 86% 29.87 in 10.0 mi West 16.1 mph 23.0 mph N/A   Overcast
10:15 PM 53.6 °F 49.5 °F 86% 29.87 in 10.0 mi West 15.0 mph - N/A   Overcast
10:35 PM 53.6 °F 49.1 °F 85% 29.87 in 10.0 mi West 16.1 mph 24.2 mph N/A   Overcast
10:55 PM 53.1 °F 48.4 °F 84% 29.87 in 10.0 mi West 17.3 mph 20.7 mph N/A   Mostly Cloudy
11:15 PM 52.2 °F 48.2 °F 86% 29.87 in 10.0 mi West 13.8 mph - N/A   Scattered Clouds
11:35 PM 50.9 °F 47.3 °F 87% 29.87 in 10.0 mi West 11.5 mph - N/A   Clear
11:55 PM 50.9 °F 46.4 °F 85% 29.87 in 10.0 mi West 11.5 mph - N/A   Scattered Clouds